Regional Weather Roundup
Issued by NWS

Home | Current Version | Previous Version | Text Only | Print | Product List | Glossary On
Versions: 1 2 3 4 5 6 7 8 9 10 11 12 13 14 15 16 17 18 19 20 21 22 23 24 25 26 27 28 29 30 31 32 33 34 35 36 37 38 39 40 41 42 43 44 45 46 47 48 49 50
000
ASUS43 KDTX 031710
RWRMI
MICHIGAN HOURLY REGIONAL WEATHER ROUNDUP
NATIONAL WEATHER SERVICE DETROIT/PONTIAC MI
100 PM EDT THU SEP 03 2015

NOTE: "FAIR" INDICATES FEW OR NO CLOUDS BELOW 12,000 FEET WITH NO
SIGNIFICANT WEATHER AND/OR OBSTRUCTION TO VISIBILITY.

MIZ047>049-052>055-059>063-066>070-074>076-081>083-031800-
SOUTHEAST LOWER MICHIGAN

CITY           SKY/WX    TMP DP  RH WIND       PRES   REMARKS
ADRIAN         MOSUNNY   88  67  49 W9        29.97F HX  91
ALMA           LGT RAIN  69  68  97 CALM      29.95F
ANN ARBOR      MOSUNNY   87  69  54 SW10      29.95F HX  91
BAD AXE        HVY RAIN  66  65  96 N5        30.00S
DETROIT CITY   PTSUNNY   87  70  56 SW9       29.94F HX  92
DETROIT        PTSUNNY   88  70  55 S9        29.96F HX  93
FLINT          TSTM      70  63  78 N8        29.97F
GROSSE ILE     SUNNY     82  73  74 S7        29.95S
HILLSDALE      MOSUNNY   87  70  57 W7        29.99F HX  91
HOWELL         PTSUNNY   84  68  59 W12       29.96S

CITY           SKY/WX    TMP DP  RH WIND       PRES   REMARKS
JACKSON        PTSUNNY   82  71  69 W6        29.97F
LAMBERTVILLE   SUNNY     88  69  52 W7        29.97F HX  92
LANSING        CLOUDY    73  69  87 S7        29.95F
LAPEER         NOT AVBL
MASON          CLOUDY    80  69  68 NW7       29.97S
MONROE         SUNNY     89  68  49 S8        29.95F HX  92
MT. CLEMENS    MOSUNNY   86  72  62 S8        29.93F HX  92
PONTIAC        CLOUDY    85  68  56 W9        29.93F
PORT HOPE        N/A     69  67  93 NW7G17    29.98R
PORT HURON     SUNNY     84  72  65 SW6       29.94F
TRI CITIES     RAIN      69  65  86 S7        29.97F FOG
YPSILANTI      MOSUNNY   90  73  57 S8        29.96F HX  98
$$
MIZ043>046-050>051-056>058-064>065-071>073-077>080-031800-
SOUTHWEST LOWER MICHIGAN

CITY           SKY/WX    TMP DP  RH WIND       PRES   REMARKS
BATTLE CREEK   PTSUNNY   85  70  60 W9        29.96F
BENTON HARBOR  PTSUNNY   83  69  62 SW13      29.95F
BIG RAPIDS     CLOUDY    71  70  96 CALM      29.92F FOG
COLDWATER      MOSUNNY   85  67  54 W9        29.97F
HOLLAND        PTSUNNY   80  69  69 W10       29.94F
GRAND RAPIDS   CLOUDY    77  73  87 S7        29.94F
KALAMAZOO      PTSUNNY   84  68  58 SW12      29.95F
MARSHALL       PTSUNNY   85  70  60 SW6       29.96F
MUSKEGON       PTSUNNY   79  69  71 SW12      29.93S
$$
MIZ016>042-031800-
NORTHERN LOWER MICHIGAN

CITY           SKY/WX    TMP DP  RH WIND       PRES   REMARKS
ALPENA         CLOUDY    70  67  90 CALM      29.97R
BEAVER ISLAND  MOSUNNY   73  65  76 E8        29.95S
BELLAIRE       DRIZZLE   70  66  88 SE3       29.93F
CADILLAC       CLOUDY    69  67  93 SE3       29.94S
CHARLEVOIX     CLOUDY    70  66  87 E8        29.96S
FRANKFORT      CLOUDY    69  68  96 CALM      29.91S FOG
GAYLORD        LGT RAIN  66  66 100 SE6       29.97R
GRAYLING       CLOUDY    66  65  95 E7        29.97R
HARBOR SPRINGS PTSUNNY   70  66  85 E8        29.94S
HOUGHTON LAKE  LGT RAIN  67  66  97 SE5       29.96S
MANISTEE       CLOUDY    68  64  88 W7        29.92S VSB 1
OSCODA         RAIN      67  66  96 SE5       29.97S
PELLSTON       PTSUNNY   73  65  75 E6        29.95S
TRAVERSE CITY  CLOUDY    71  67  87 SE6       29.91S
$$
MIZ007>008-015-031800-
EASTERN UPPER MICHIGAN

CITY           SKY/WX    TMP DP  RH WIND       PRES   REMARKS
KINROSS        PTSUNNY   73  63  68 E8        29.98S
MACKINAC ISLAN CLOUDY    69  64  83 E12G21    29.96R
NEWBERRY       MOSUNNY   79  64  59 E12G17    29.97S
S. S. MARIE    PTSUNNY   77  64  64 E5        29.97S
$$
MIZ004>006-011>014-085-031800-
CENTRAL UPPER MICHIGAN

CITY           SKY/WX    TMP DP  RH WIND       PRES   REMARKS
MANISTIQUE     CLOUDY    73  65  75 SE7       29.96R
ESCANABA       PTSUNNY   73  64  73 E9        29.94F
MENOMINEE      CLOUDY    70  64  83 E8        29.95S
SAWYER-GWINN   SUNNY     72  63  73 NE7       30.00S
$$
MIZ001>003-009>011-084-031800-
WESTERN UPPER MICHIGAN

CITY           SKY/WX    TMP DP  RH WIND       PRES   REMARKS
IRON MOUNTAIN  CLOUDY    71  65  81 N3        29.98F
HOUGHTON       SUNNY     73  58  59 CALM      30.00S
COPPER HARBOR    N/A     63  57  81 E5        30.00S
IRONWOOD       SUNNY     73  61  64 E7        29.97S
$$

ABBREVIATIONS USED IN REMARKS
   TC - TEMPERATURE IN CELSIUS
  WCI - WIND CHILL INDEX
   HX - HEAT INDEX
  VSB - VISIBILITY



USA.gov is the U.S. government's official web portal to all federal, state and local government web resources and services.